Pagina principală
METAR-TAF:

METAR-TAF

Aeroporturi :

Santa Ana del Yacuma, Bolivia

Latitudine: 13-46S, longitudine: 065-26W, elevație: 144 m

Observații meteo curente

Raportul a fost făcut în urmă cu 9 ore și 27 de minute, la 23:00 UTC
Vânt 4 kt de la Nord-vest
Temperatură 28°C
Umiditate 70%
Presiune 1009 hPa
Vizibilitate de 10 km sau mai mult
Nori puțini la o înălțime de 8000 picior
Nori fragmentați la o înălțime de 20000 picior

METAR: SLSA 132300Z 32004KT 9999 FEW080 BKN200 28/22 Q1009

Ora: 04:27 (08:27 UTC)


TAF: lipsă

Observații și prognoze meteo pentru peste 4.000 de aeroporturi (rapoarte METAR și TAF).

Stațiile disponibile sunt reprezentate pe hartă prin puncte galbene și roșii.

Țineți indicatorul mouse-ului pe punctul dorit pentru a vedea denumirea stației.

Apoi, faceți clic pentru a vedea observațiile și prognozele meteorologice.

Pentru a schimba harta: Pentru mărire, faceți clic pe butoanele verzi cu cruce neagră; pentru micșorare, pe butonul verde cu o liniuță; pentru hărți învecinate, pe săgețile verzi.


METAR-TAF: